[[{"header":{"parameterUnit":"m.s-1","parameterCategory":1,"la1":30.2991,"la2":30.254,"lo1":-89.0895,"lo2":-89.0444,"dy":0.0017,"dx":0.0017,"nx":28,"ny":28,"refTime":"2023-08-16T09:00:00:Z","depth":0,"parameterNumber":2,"parameterNumberName":"U-component_of_WINDS"},"data":[0,0,0,0,0,0,0,0,0,0,0,0,0,0,0,0,0,0,0,0,0,0,0,0,0,0,0,0,0,0,0,0,0,0,0,0,0,0,0,0,0,0,0,0,0,0,0,0,0,0,0,0,0,0,0,0,0,0,0.8499,0.8501,0,0.8619,0.8621,0.8622,0.8647,0.8646,0.8645,0.8644,0.8768,0.8772,0.8777,0,0,0,0,0,0,0,0,0,0,0,0,0,0.8293,0.8296,0.8499,0.8501,0.8502,0.8619,0.8621,0.8622,0.8647,0.8646,0.8645,0.8644,0.8767,0.8772,0.8777,0,0,0,0,0,0,0,0,0,0,0,0,0,0.8394,0.8297,0.8499,0.8529,0.8532,0.8619,0.8621,0.8623,0.8647,0.8646,0.8644,0.8643,0.8765,0.8771,0.8778,0.8843,0,0,0.8797,0.8799,0,0,0,0,0,0,0,0,0.8389,0.8402,0.8523,0.8527,0.8531,0.8617,0.8593,0.8697,0.8648,0.8604,0.8644,0.8643,0.8719,0.8729,0.8755,0.8849,0.8854,0.8797,0.8801,0.8804,0.8805,0,0,0,0,0,0,0,0.8381,0.8397,0.8547,0.8524,0.853,0.8536,0.8549,0.8613,0.8668,0.8607,0.8609,0.8623,0.8721,0.8749,0.8758,0.8856,0.8797,0.8803,0.8806,0.8809,0.9011,0.9012,0,0,0,0,0,0,0.8369,0.8391,0.8543,0.855,0.8455,0.8541,0.8555,0.8591,0.8667,0.8677,0.8624,0.8624,0.8739,0.875,0.8762,0.8844,0.8804,0.8809,0.8813,0.9009,0.9011,0.9013,0,0,0,0,0,0,0.8364,0.8382,0.8538,0.8471,0.8492,0.8546,0.8585,0.8594,0.8621,0.868,0.869,0.8642,0.8738,0.8753,0.8823,0.8849,0.8812,0.8818,0.9007,0.901,0.9012,0.9008,0,0,0,0,0,0,0.8358,0.8381,0.8406,0.8472,0.8495,0.8596,0.8587,0.8597,0.8632,0.8632,0.8699,0.8709,0.8738,0.8813,0.8829,0.8857,0.8823,0.9005,0.9008,0.9011,0.9006,0.901,0.9014,0,0,0,0,0,0.8351,0.84,0.8407,0.8425,0.8528,0.8598,0.8611,0.8643,0.8633,0.866,0.8697,0.8707,0.8843,0.882,0.8838,0.8868,0.9004,0.9007,0.9011,0.9005,0.9009,0.9014,0,0,0,0,0,0,0.8337,0.841,0.8418,0.849,0.8537,0.8602,0.8636,0.8647,0.8699,0.8698,0.8736,0.8751,0.8818,0.885,0.8823,0.8935,0.8923,0.893,0.8912,0.8917,0.8921,0.8912,0.8828,0,0,0,0,0,0.8342,0.8392,0.8453,0.8511,0.8535,0.8581,0.8613,0.8633,0.8684,0.8705,0.8747,0.8797,0.8851,0.8886,0.8939,0.9011,0.9026,0.904,0.9044,0.9047,0.9053,0.9093,0.91,0.9025,0.9025,0.9025,0,0,0.8353,0.8399,0.8429,0.8509,0.8549,0.86,0.8598,0.8653,0.8692,0.8713,0.8781,0.8814,0.8872,0.8943,0.8976,0.8972,0.9077,0.9051,0.9053,0.9058,0.9098,0.9105,0.9111,0.9027,0.9027,0.9026,0,0,0.8401,0.844,0.8493,0.8532,0.8591,0.8622,0.8634,0.8697,0.872,0.8788,0.8806,0.8853,0.8945,0.8985,0.9018,0.908,0.9091,0.9096,0.9115,0.9154,0.916,0.9166,0.9188,0.9196,0.9102,0.9102,0.9102,0,0.8407,0.8486,0.8518,0.8572,0.8607,0.8629,0.8682,0.8719,0.8793,0.8816,0.881,0.8926,0.8966,0.9047,0.9062,0.9088,0.9103,0.9089,0.9157,0.9163,0.9168,0.919,0.9198,0.9102,0.9102,0.9102,0.9102,0,0.8491,0.8545,0.858,0.865,0.8689,0.8743,0.8784,0.8819,0.8836,0.8867,0.8937,0.8986,0.905,0.907,0.9088,0.9153,0.9149,0.9149,0.9137,0.9175,0.9196,0.9205,0.9102,0.9102,0.9102,0.9102,0,0,0.8533,0.862,0.8633,0.8665,0.8731,0.8774,0.8828,0.889,0.892,0.897,0.9016,0.9094,0.9094,0.9131,0.9153,0.9188,0.9234,0.9184,0.9186,0.9192,0.9309,0.9309,0.9318,0.9241,0.9243,0.9244,0.9305,0,0.8588,0.8686,0.8717,0.8799,0.8849,0.887,0.8917,0.8963,0.8994,0.9041,0.9075,0.9129,0.9126,0.9148,0.9183,0.9221,0.9258,0.9217,0.9285,0.9287,0.927,0.9329,0.9329,0.9383,0.9313,0.9314,0.9315,0,0.8666,0.8717,0.8803,0.8864,0.8886,0.8928,0.8987,0.9032,0.9085,0.9104,0.9145,0.9165,0.9223,0.9207,0.9288,0.9259,0.9289,0.9311,0.9314,0.9322,0.9304,0.9339,0.9402,0.941,0.9329,0.9328,0.9327,0,0.8688,0.8778,0.8842,0.8869,0.894,0.8969,0.9001,0.9052,0.9087,0.9138,0.9161,0.9219,0.925,0.9295,0.9329,0.9314,0.9407,0.9394,0.9425,0.9424,0.9444,0.9442,0.9513,0.9462,0.9462,0.9462,0.9462,0,0.8747,0.8799,0.8853,0.8892,0.8951,0.8986,0.9043,0.9076,0.9121,0.9167,0.9189,0.9231,0.9274,0.9322,0.935,0.9412,0.9426,0.9444,0.9451,0.9443,0.944,0.9463,0.946,0.9464,0.9464,0.9463,0.9463,0,0.8782,0.882,0.889,0.8952,0.8969,0.901,0.9063,0.9102,0.9133,0.9191,0.9206,0.9255,0.9313,0.9352,0.9426,0.9444,0.9513,0.9518,0.9495,0.9498,0.9527,0.9524,0.9615,0.9629,0.9569,0.9569,0.957,0,0.8817,0.8858,0.8924,0.8956,0.8987,0.9039,0.9074,0.911,0.9146,0.9209,0.924,0.93,0.9349,0.9441,0.9483,0.954,0.9548,0.9576,0.9557,0.9547,0.9549,0.9546,0.955,0.9579,0.9579,0.958,0.958,0,0.8875,0.8892,0.8942,0.8999,0.9041,0.9087,0.9134,0.9159,0.9203,0.9242,0.9302,0.934,0.9415,0.9474,0.9535,0.9568,0.9582,0.9586,0.9596,0.9588,0.9573,0.9581,0.9503,0.9584,0.9583,0.9583,0.9583,0.9583,0.8912,0.8949,0.9001,0.9056,0.9095,0.9138,0.9177,0.9213,0.9263,0.9327,0.9345,0.9407,0.9459,0.9542,0.9576,0.9625,0.9622,0.9637,0.964,0.9644,0.9644,0.9564,0.9636,0.9636,0.9636,0.9636,0.9636,0,0.8971,0.9006,0.9056,0.9121,0.9164,0.9172,0.9224,0.926,0.9314,0.9361,0.9409,0.9477,0.9534,0.9581,0.964,0.967,0.9678,0.9685,0.9683,0.969,0.9643,0.9628,0.9677,0.9677,0.9677,0.9677,0.9677,0.9677,0.9008,0.9071,0.9093,0.9176,0.921,0.927,0.9299,0.9339,0.9377,0.9452,0.9499,0.9529,0.9576,0.9638,0.9691,0.9703,0.9724,0.9729,0.9743,0.9698,0.9694,0.9689,0.9676,0.9734,0.9734,0.9786,0.9787,0.9787]},{"header":{"parameterUnit":"m.s-1","parameterCategory":1,"la1":30.2991,"la2":30.254,"lo1":-89.0895,"lo2":-89.0444,"dy":0.0017,"dx":0.0017,"nx":28,"ny":28,"refTime":"2023-08-16T09:00:00:Z","depth":0,"parameterNumber":3,"parameterNumberName":"V-component_of_WINDS"},"data":[0,0,0,0,0,0,0,0,0,0,0,0,0,0,0,0,0,0,0,0,0,0,0,0,0,0,0,0,0,0,0,0,0,0,0,0,0,0,0,0,0,0,0,0,0,0,0,0,0,0,0,0,0,0,0,0,0,0,4.0453,4.0453,0,4.0487,4.0487,4.0488,4.0464,4.0463,4.0461,4.046,4.0491,4.0493,4.0494,0,0,0,0,0,0,0,0,0,0,0,0,0,4.0361,4.0363,4.0453,4.0453,4.0453,4.0487,4.0488,4.0488,4.0464,4.0463,4.0461,4.046,4.049,4.0492,4.0495,0,0,0,0,0,0,0,0,0,0,0,0,0,4.0399,4.0364,4.0452,4.0446,4.0445,4.0487,4.0488,4.0488,4.0464,4.0462,4.0461,4.0459,4.049,4.0492,4.0495,4.0544,0,0,4.0503,4.0504,0,0,0,0,0,0,0,0,4.0397,4.0402,4.0446,4.0446,4.0446,4.047,4.0466,4.0507,4.0464,4.0457,4.046,4.0459,4.0485,4.0488,4.0498,4.0545,4.0546,4.0503,4.0505,4.0506,4.0507,0,0,0,0,0,0,0,4.0394,4.04,4.0466,4.0447,4.0447,4.0439,4.0443,4.0474,4.0479,4.0457,4.0456,4.046,4.0484,4.0495,4.0498,4.0547,4.0503,4.0506,4.0507,4.0508,4.0636,4.0638,0,0,0,0,0,0,4.0393,4.0398,4.0465,4.0467,4.0417,4.0442,4.0446,4.0463,4.0479,4.048,4.0462,4.0459,4.0491,4.0495,4.0499,4.0557,4.0506,4.0509,4.051,4.0634,4.0636,4.0638,0,0,0,0,0,0,4.0391,4.0399,4.0464,4.0432,4.044,4.0446,4.0465,4.0465,4.0476,4.0482,4.0482,4.0472,4.049,4.0495,4.0533,4.0558,4.051,4.0512,4.0632,4.0635,4.0637,4.0674,0,0,0,0,0,0,4.0388,4.0398,4.0418,4.0433,4.0442,4.0498,4.0467,4.0467,4.0481,4.0478,4.0492,4.0493,4.0489,4.0529,4.0536,4.0561,4.0514,4.063,4.0633,4.0637,4.067,4.0678,4.0684,0,0,0,0,0,4.0385,4.0426,4.0419,4.0427,4.0467,4.05,4.0505,4.0501,4.0483,4.0502,4.0506,4.0492,4.0554,4.0533,4.054,4.0567,4.0628,4.0632,4.0636,4.0668,4.0676,4.0683,0,0,0,0,0,0,4.0411,4.0427,4.042,4.0467,4.0483,4.0496,4.052,4.0511,4.053,4.0526,4.052,4.0523,4.0563,4.0568,4.0545,4.0615,4.0588,4.0594,4.061,4.0618,4.0624,4.0621,4.0517,0,0,0,0,0,4.0423,4.045,4.0462,4.0502,4.0511,4.0514,4.0528,4.0525,4.054,4.0545,4.0552,4.0566,4.0589,4.0604,4.0625,4.0672,4.0674,4.0693,4.07,4.0705,4.0709,4.0735,4.0743,4.0651,4.0651,4.0651,0,0,4.0446,4.0458,4.0475,4.0508,4.0519,4.0546,4.0519,4.0549,4.0568,4.0549,4.0586,4.0592,4.0606,4.0649,4.0668,4.0655,4.0736,4.071,4.0714,4.0716,4.0739,4.0748,4.0756,4.0654,4.0654,4.0653,0,0,4.0502,4.0515,4.055,4.0563,4.0581,4.0583,4.0592,4.0607,4.0611,4.0648,4.0634,4.0656,4.0696,4.0707,4.0718,4.078,4.0767,4.0787,4.082,4.0845,4.0852,4.0859,4.088,4.0888,4.0792,4.0792,4.0792,0,4.0528,4.057,4.0568,4.06,4.0614,4.06,4.0635,4.0647,4.067,4.068,4.0665,4.0715,4.0724,4.0769,4.0784,4.0794,4.0802,4.0785,4.0852,4.0858,4.0864,4.0885,4.0893,4.0794,4.0794,4.0794,4.0793,0,4.0601,4.063,4.0656,4.0682,4.0699,4.0732,4.0734,4.0751,4.0747,4.075,4.0788,4.0798,4.0822,4.0832,4.0827,4.0877,4.0868,4.0853,4.0826,4.0875,4.0894,4.0902,4.0797,4.0796,4.0796,4.0795,0,0,4.0673,4.0699,4.0709,4.072,4.0741,4.0762,4.0794,4.0819,4.0834,4.0851,4.0877,4.0911,4.0897,4.091,4.0906,4.0927,4.0976,4.0909,4.091,4.0921,4.1031,4.1042,4.1051,4.0968,4.0969,4.0971,4.1029,0,4.073,4.0788,4.0788,4.0841,4.0867,4.0855,4.0883,4.0898,4.0902,4.0924,4.0928,4.0952,4.0933,4.094,4.0961,4.0965,4.0998,4.0961,4.0991,4.0992,4.0987,4.1061,4.1073,4.1128,4.1037,4.1038,4.1039,0,4.0804,4.0827,4.0883,4.09,4.0911,4.0936,4.0959,4.0981,4.0997,4.0998,4.1013,4.1006,4.1037,4.1011,4.1053,4.1028,4.104,4.1044,4.1046,4.1048,4.1018,4.1065,4.1145,4.1153,4.1051,4.105,4.1049,0,4.0851,4.0895,4.0934,4.0944,4.0966,4.0984,4.0993,4.1008,4.1023,4.1042,4.1052,4.1074,4.1086,4.1103,4.1101,4.1082,4.1144,4.1117,4.1145,4.1145,4.1158,4.1157,4.1241,4.1167,4.1167,4.1167,4.1167,0,4.0915,4.0949,4.0956,4.098,4.1018,4.1017,4.1054,4.1061,4.1075,4.1099,4.109,4.1112,4.1109,4.1132,4.1131,4.1166,4.1171,4.1172,4.1171,4.1173,4.1173,4.118,4.1176,4.1169,4.1169,4.1168,4.1168,0,4.0973,4.0978,4.1021,4.1038,4.1043,4.1071,4.1085,4.1107,4.1111,4.1142,4.1149,4.1155,4.1181,4.1182,4.121,4.121,4.1253,4.1248,4.1248,4.1247,4.1274,4.1272,4.1366,4.1378,4.1296,4.1297,4.1298,0,4.1012,4.1039,4.106,4.1077,4.1088,4.1115,4.1131,4.1131,4.1148,4.1169,4.1189,4.1214,4.1234,4.1276,4.1282,4.1304,4.1299,4.1331,4.1302,4.1303,4.1299,4.1298,4.13,4.1336,4.1337,4.1338,4.1338,0,4.1082,4.1085,4.1109,4.1135,4.1155,4.1175,4.1194,4.1207,4.121,4.1229,4.1256,4.1272,4.1303,4.1328,4.135,4.1358,4.1348,4.1348,4.1355,4.1356,4.1355,4.1356,4.1262,4.1345,4.1344,4.1344,4.1343,4.1343,4.1132,4.1156,4.1175,4.1203,4.1217,4.1235,4.1257,4.1265,4.1289,4.1316,4.1314,4.1344,4.136,4.1389,4.1398,4.1421,4.141,4.1421,4.1424,4.1426,4.1429,4.1353,4.1425,4.1425,4.1425,4.1424,4.1424,0,4.1201,4.1214,4.124,4.1267,4.1289,4.128,4.1301,4.1319,4.1347,4.1363,4.1384,4.1416,4.144,4.1449,4.1472,4.1489,4.1485,4.1495,4.1493,4.1495,4.1438,4.1429,4.1498,4.1498,4.1498,4.1498,4.1498,4.1498,4.124,4.1279,4.1284,4.133,4.1342,4.1373,4.1385,4.1401,4.1415,4.1451,4.1473,4.1479,4.1492,4.1516,4.1538,4.154,4.1549,4.1561,4.156,4.1507,4.1499,4.1492,4.1484,4.1563,4.1563,4.1616,4.1616,4.1616]}]]